Regional Weather Roundup
Issued by NWS Charleston, SC

Current Version | Previous Version | Text Only | Print | Product List | Glossary Off
Versions: 1 2 3 4 5 6 7 8 9 10 11 12 13 14 15 16 17 18 19 20 21 22 23 24 25 26 27 28 29 30 31 32 33 34 35 36 37 38 39 40 41 42 43 44 45 46 47 48 49 50
856 ASUS42 KCHS 230943 RWRCHS REGIONAL WEATHER ROUNDUP NATIONAL WEATHER SERVICE CHARLESTON SC 500 AM EDT SAT SEP 23 2017 NOTE: "FAIR" INDICATES FEW OR NO CLOUDS BELOW 12,000 FEET WITH NO SIGNIFICANT WEATHER AND/OR OBSTRUCTIONS TO VISIBILITY. NOT ALL STATIONS ARE QUALITY CONTROLLED. USE DATA WITH CAUTION... ESPECIALLY DEWPOINT OBSERVATIONS. SCZ027-030-031-034>040-042>050-231000- ...SOUTHEAST SOUTH CAROLINA... CITY SKY/WX TMP DP RH WIND PRES REMARKS N CHARLESTON PTCLDY 70 70 100 N5 29.98S WATERFRONT PRK N/A 75 73 93 N5 29.82S JOHNS ISLAND FAIR 73 73 100 N5 29.97F FOG PINOPOLIS N/A 75 73 94 NE6 29.91S MONCKS CORNER FAIR 66 66 100 CALM 29.99S FOG SUMMERVILLE FAIR 68 66 94 CALM 30.00S FOG BEAUFORT MCAS PTCLDY 73 73 100 N6 29.98S FOG BEAUFORT ARPT FAIR 72 72 100 N3 29.97S HILTON HEAD IS PTCLDY 77 75 94 N7 29.98R WALTERBORO SUNNY 66 66 100 CALM 30.00S FOG ALLENDALE NOT AVBL ...SOUTHERN MIDLANDS AND PEE DEE... CITY SKY/WX TMP DP RH WIND PRES REMARKS GEORGETOWN FAIR 68 68 100 CALM 29.99F KINGSTREE FAIR 63 63 100 CALM 30.00F ORANGEBURG CLEAR 67 66 97 CALM 30.01S FOG BARNWELL FAIR 68 68 100 CALM 30.00F FOG AIKEN FAIR 63 63 100 CALM 30.05S MANNING FAIR 64 63 94 MISG 30.01S FOG COLUMBIA PTCLDY 69 65 86 CALM 30.01R SUMTER CLEAR 66 63 91 CALM 29.99S FLORENCE CLEAR 66 66 100 CALM 30.01S FOG MYRTLE BEACH PTCLDY 71 70 96 N3 30.00F N MYRTLE BEACH PTCLDY 69 69 100 N3 29.98F FOG $$ GAZ063-065-086>088-099>101-113>116-118-119-134>141-150-231000- ...SOUTHEAST GEORGIA... CITY SKY/WX TMP DP RH WIND PRES REMARKS SAVANNAH ARPT CLOUDY 71 71 100 N3 29.98R FOG HUNTER AAF CLEAR 73 71 94 N3 29.95R FORT STEWART CLEAR 70 68 95 N3 29.95S STATESBORO CLEAR 69 69 100 CALM 29.99S FOG SYLVANIA SUNNY 67 67 100 CALM 30.01R FOG CLAXTON FAIR 68 67 98 CALM 29.99S FOG ...CSRA...CENTRAL AND FAR SOUTHEAST GEORGIA... CITY SKY/WX TMP DP RH WIND PRES REMARKS THOMSON FOG 66 65 97 CALM 30.07S VSB 3/4 AUGUSTA-BUSH FOG 67 65 93 CALM 30.00S VSB 1/2 AUGUSTA-DANIEL CLEAR 71 68 90 CALM 30.02R SWAINSBORO FAIR 68 68 100 CALM 30.01S VIDALIA CLEAR 70 68 94 CALM 30.00R EASTMAN N/A 66 65 99 CALM 30.02S FOG HAZLEHURST FAIR 70 67 91 CALM 29.98S ALMA CLEAR 70 68 93 N3 29.97S FOG WAYCROSS N/A 69 66 90 CALM 29.96F FOG JESUP NOT AVBL BAXLEY FAIR 68 68 100 CALM 29.98R FOG BRUNSWICK PTCLDY 72 70 94 N5 29.96S FOG SAINT SIMONS PTCLDY 77 74 90 N5 29.94S $$ SCZ027-028-034-036>038-045-046-048>050-GAZ119-141-231000- ...LAKE AND SUPPLEMENTAL COASTAL OBSERVATIONS... STATION/POSITION TIME TEMP WIND PRES WAVE SWELL AIR SEA DIR/SP/G HT/PER HT/PER/DIR (UTC) (F) (DEG/KT/KT) (MB) (FT/S) (FT/S/D) WINYAH BAY 0830 72 340/ 2 1015.0S LAKE MURRAY 0920 71 CALM 1015.6 ACE BASIN NERRS 0845 72 350/ 1 1015.0S FORT PULASKI 0900 76 80 10/ 5/ 7 1015.1 SAPELO ISLAND 0900 75 CALM 1014.0 $$ ANZ835-935-AMZ111-154-330-350-352-354-370-450-454-472-231000- ...C-MAN AND BUOY OBSERVATIONS... STATION/POSITION TIME TEMP WIND PRES WAVE SWELL AIR SEA DIR/SP/G HT/PER HT/PER/DIR (UTC) (F) (DEG/KT/KT) (MB) (FT/S) (FT/S/D) BUOY 41004 0910 80 81 60/ 8/ 12 1014.0 BUOY 41008 0850 80 81 70/ 12/ 14 1013.8S 4/14 3/130/14 FOLLY BEACH CMAN 0900 76 340/ 4/ 6 1015.5S CAPERS NEARSHORE 0908 77 81 80/ 8/ 12 1014.5F FRIPP NEARSHORE 0908 79 30/ 10/ 14 1021.1F STATION/POSITION TIME TEMP WIND PRES WAVE SWELL AIR SEA DIR/SP/G HT/PER HT/PER/DIR (UTC) (F) (DEG/KT/KT) (MB) (FT/S) (FT/S/D) 5E ST. MARYS GA 0900 82 N/A 4/12 3/120/12 FRYING PAN BUOY 0910 80 82 50/ 6/ 8 1014.9 BUOY 41025 0850 76 76 360/ 4/ 6 1015.3F 7/15 7/140/15 CAPE LOOKOUT NC 0900 77 340/ 5/ 6 1015.2F BUOY 41002 0850 78 79 60/ 14/ 17 1013.6F 10/11 10/110/11 BUOY 41010 0910 80/ 16/ 19 1012.4 ST AUGUSTINE FL 0900 77 82 50/ 11/ 13 1012.9F $$

USA.gov is the U.S. government's official web portal to all federal, state and local government web resources and services.